Location: Newark
(35.2672°N, 80.7344°W)
Time: 01:05:10
(UTC+00:00)

Vanguard 2 Rocket - Pass Details

Date: 21 January 2020
Orbit: 553 x 3327 km, 32.9° (Epoch: 25 February)

Event Time Altitude Azimuth Distance (km) Brightness Sun altitude
Rises 15:36:06 0° 278° (W) 4,140 9.9 28.1°
Reaches altitude 10° 15:38:28 10° 274° (W) 3,446 9.6 28.4°
Maximum altitude 15:47:30 59° 197° (SSW) 2,244 9.8 29.3°
Drops below altitude 10° 16:03:16 10° 124° (SE) 5,745 12.0 30.8°
Sets 16:08:31 0° 121° (ESE) 7,035 12.2 31.2°
